Météo par heure à Jugow

Ce jour, 17 Juin, Jeudi

Heure Température Précipitation Vent Pression Humidité
00:00 +18°C° 0 mm 2 m/s 741 mmHg 89%
01:00 +18°C° 0 mm 2 m/s 741 mmHg 89%
02:00 +17°C° 0 mm 2 m/s 740 mmHg 88%
03:00 +17°C° 0 mm 2 m/s 740 mmHg 87%
04:00 +17°C° 0 mm 2 m/s 740 mmHg 86%
05:00 +19°C° 0 mm 2 m/s 740 mmHg 81%
06:00 +21°C° 0 mm 2 m/s 741 mmHg 76%
07:00 +24°C° 0 mm 2 m/s 741 mmHg 70%
08:00 +25°C° 0 mm 2 m/s 741 mmHg 64%
09:00 +26°C° 0 mm 3 m/s 741 mmHg 58%
10:00 +28°C° 0 mm 4 m/s 741 mmHg 52%
11:00 +28°C° 0 mm 4 m/s 741 mmHg 50%
12:00 +29°C° 0 mm 4 m/s 741 mmHg 48%
13:00 +29°C° 0 mm 4 m/s 741 mmHg 47%
14:00 +29°C° 0 mm 4 m/s 741 mmHg 48%
15:00 +29°C° 0 mm 4 m/s 741 mmHg 50%
16:00 +29°C° 0 mm 4 m/s 741 mmHg 51%
17:00 +28°C° 0 mm 3 m/s 741 mmHg 58%
18:00 +26°C° 0 mm 2 m/s 740 mmHg 65%
19:00 +25°C° 0 mm 2 m/s 740 mmHg 72%
20:00 +24°C° 0 mm 2 m/s 740 mmHg 73%
21:00 +21°C° 0 mm 2 m/s 741 mmHg 75%
22:00 +20°C° 0 mm 2 m/s 741 mmHg 77%
23:00 +19°C° 0 mm 2 m/s 741 mmHg 78%

Demain, 18 Juin, Vendredi

Heure Température Précipitation Vent Pression Humidité
00:00 +19°C° 0 mm 2 m/s 741 mmHg 80%
01:00 +18°C° 0 mm 2 m/s 740 mmHg 81%
02:00 +18°C° 0 mm 2 m/s 740 mmHg 81%
03:00 +18°C° 0 mm 2 m/s 740 mmHg 82%
04:00 +18°C° 0 mm 2 m/s 740 mmHg 82%
05:00 +19°C° 0 mm 2 m/s 740 mmHg 77%
06:00 +21°C° 0 mm 2 m/s 741 mmHg 71%
07:00 +24°C° 0 mm 2 m/s 741 mmHg 66%
08:00 +26°C° 0 mm 2 m/s 740 mmHg 61%
09:00 +27°C° 0 mm 3 m/s 740 mmHg 56%
10:00 +29°C° 0 mm 3 m/s 740 mmHg 51%
11:00 +29°C° 0 mm 3 m/s 740 mmHg 49%
12:00 +30°C° 0 mm 3 m/s 740 mmHg 47%
13:00 +31°C° 0 mm 3 m/s 740 mmHg 44%
14:00 +30°C° 0 mm 3 m/s 740 mmHg 46%
15:00 +30°C° 0 mm 3 m/s 740 mmHg 48%
16:00 +30°C° 0 mm 3 m/s 739 mmHg 49%
17:00 +29°C° 0 mm 3 m/s 739 mmHg 56%
18:00 +27°C° 0 mm 2 m/s 739 mmHg 64%
19:00 +26°C° 0 mm 2 m/s 739 mmHg 71%
20:00 +25°C° 0 mm 2 m/s 739 mmHg 74%
21:00 +23°C° 0 mm 2 m/s 739 mmHg 76%
22:00 +21°C° 0 mm 2 m/s 740 mmHg 79%
23:00 +20°C° 0 mm 2 m/s 740 mmHg 79%

Après-demain, 19 Juin, Samedi

Heure Température Précipitation Vent Pression Humidité
00:00 +20°C° 0 mm 2 m/s 739 mmHg 79%
01:00 +19°C° 0 mm 2 m/s 739 mmHg 79%
02:00 +19°C° 0 mm 2 m/s 739 mmHg 79%
03:00 +19°C° 0 mm 2 m/s 739 mmHg 78%
04:00 +19°C° 0 mm 2 m/s 739 mmHg 78%
05:00 +21°C° 0 mm 2 m/s 739 mmHg 73%
06:00 +24°C° 0 mm 2 m/s 739 mmHg 68%
07:00 +26°C° 0 mm 1 m/s 740 mmHg 64%
08:00 +27°C° 0 mm 2 m/s 740 mmHg 58%
09:00 +29°C° 0 mm 2 m/s 740 mmHg 53%
10:00 +30°C° 0 mm 2 m/s 740 mmHg 48%
11:00 +31°C° 0 mm 2 m/s 739 mmHg 47%
12:00 +31°C° 0 mm 2 m/s 739 mmHg 45%
13:00 +32°C° 0 mm 2 m/s 739 mmHg 43%
14:00 +32°C° 0 mm 2 m/s 739 mmHg 46%
15:00 +31°C° 0 mm 2 m/s 739 mmHg 49%
16:00 +31°C° 0 mm 2 m/s 739 mmHg 51%
17:00 +30°C° 0 mm 2 m/s 739 mmHg 58%
18:00 +28°C° 0 mm 2 m/s 738 mmHg 64%
19:00 +27°C° 0 mm 2 m/s 738 mmHg 71%
20:00 +26°C° 0 mm 1 m/s 738 mmHg 74%
21:00 +24°C° 0 mm 1 m/s 739 mmHg 77%
22:00 +23°C° 0 mm 1 m/s 739 mmHg 81%
23:00 +22°C° 0 mm 1 m/s 739 mmHg 82%

20 Juin, Dimanche

Heure Température Précipitation Vent Pression Humidité
00:00 +22°C° 0 mm 1 m/s 738 mmHg 84%
01:00 +21°C° 0 mm 1 m/s 738 mmHg 86%
02:00 +21°C° 0 mm 1 m/s 738 mmHg 87%
03:00 +21°C° 0 mm 1 m/s 738 mmHg 87%
04:00 +20°C° 0 mm 1 m/s 737 mmHg 88%
05:00 +21°C° 0 mm 2 m/s 737 mmHg 83%
06:00 +23°C° 0 mm 2 m/s 737 mmHg 78%
07:00 +25°C° 0 mm 2 m/s 737 mmHg 73%
08:00 +26°C° 0 mm 3 m/s 737 mmHg 67%
09:00 +27°C° 0 mm 4 m/s 737 mmHg 61%
10:00 +29°C° 0 mm 4 m/s 737 mmHg 55%
11:00 +29°C° 0 mm 4 m/s 736 mmHg 52%
12:00 +30°C° 0 mm 5 m/s 736 mmHg 50%
13:00 +32°C° 0 mm 5 m/s 736 mmHg 47%
14:00 +32°C° 0 mm 5 m/s 736 mmHg 48%
15:00 +32°C° 0 mm 5 m/s 735 mmHg 48%
16:00 +32°C° 0 mm 4 m/s 735 mmHg 49%
17:00 +29°C° 0 mm 4 m/s 735 mmHg 56%
18:00 +28°C° 0 mm 3 m/s 735 mmHg 63%
19:00 +26°C° 0 mm 2 m/s 734 mmHg 70%
20:00 +25°C° 0 mm 2 m/s 734 mmHg 73%
21:00 +24°C° 0 mm 2 m/s 734 mmHg 76%
22:00 +21°C° 0 mm 2 m/s 734 mmHg 79%
23:00 +21°C° 0 mm 2 m/s 734 mmHg 81%

21 Juin, Lundi

Heure Température Précipitation Vent Pression Humidité
00:00 +20°C° 0 mm 2 m/s 734 mmHg 82%
01:00 +20°C° 0 mm 2 m/s 734 mmHg 83%
02:00 +20°C° 0 mm 2 m/s 734 mmHg 83%
03:00 +20°C° 0 mm 2 m/s 734 mmHg 82%
04:00 +20°C° 0 mm 2 m/s 733 mmHg 82%
05:00 +21°C° 0 mm 2 m/s 734 mmHg 78%
06:00 +22°C° 0 mm 3 m/s 734 mmHg 75%
07:00 +25°C° 0 mm 3 m/s 734 mmHg 71%
08:00 +26°C° 0.1 mm 3 m/s 734 mmHg 68%
09:00 +27°C° 0.1 mm 2 m/s 734 mmHg 66%
10:00 +27°C° 0.1 mm 2 m/s 734 mmHg 63%
11:00 +28°C° 0.2 mm 2 m/s 734 mmHg 62%
12:00 +28°C° 0.2 mm 2 m/s 734 mmHg 61%
13:00 +29°C° 0.2 mm 2 m/s 734 mmHg 60%
14:00 +29°C° 0.5 mm 1 m/s 734 mmHg 61%
15:00 +29°C° 0.5 mm 1 m/s 734 mmHg 62%
16:00 +29°C° 0.5 mm 1 m/s 734 mmHg 62%
17:00 +27°C° 0.8 mm 1 m/s 733 mmHg 69%
18:00 +26°C° 0.8 mm 1 m/s 733 mmHg 76%
19:00 +24°C° 0.8 mm 1 m/s 733 mmHg 84%
20:00 +23°C° 1.3 mm 1 m/s 733 mmHg 86%
21:00 +22°C° 1.3 mm 1 m/s 733 mmHg 89%
22:00 +22°C° 1.3 mm 1 m/s 733 mmHg 91%
23:00 +21°C° 0.4 mm 1 m/s 733 mmHg 91%

22 Juin, Mardi

Heure Température Précipitation Vent Pression Humidité
00:00 +21°C° 0.4 mm 1 m/s 732 mmHg 91%
01:00 +21°C° 0.4 mm 1 m/s 732 mmHg 91%
02:00 +19°C° 1.5 mm 2 m/s 733 mmHg 93%
03:00 +19°C° 1.5 mm 3 m/s 733 mmHg 94%
04:00 +18°C° 1.5 mm 3 m/s 733 mmHg 96%
05:00 +19°C° 0.2 mm 3 m/s 733 mmHg 94%
06:00 +19°C° 0.2 mm 3 m/s 734 mmHg 92%
07:00 +19°C° 0.2 mm 3 m/s 734 mmHg 91%
08:00 +20°C° 0 mm 4 m/s 734 mmHg 84%
09:00 +21°C° 0 mm 4 m/s 735 mmHg 78%
10:00 +22°C° 0 mm 4 m/s 735 mmHg 71%
11:00 +25°C° 0 mm 4 m/s 736 mmHg 65%
12:00 +26°C° 0 mm 5 m/s 736 mmHg 59%
13:00 +27°C° 0 mm 5 m/s 736 mmHg 53%
14:00 +27°C° 0 mm 5 m/s 736 mmHg 54%
15:00 +27°C° 0 mm 5 m/s 736 mmHg 55%
16:00 +26°C° 0 mm 5 m/s 737 mmHg 56%
17:00 +25°C° 0 mm 4 m/s 737 mmHg 63%
18:00 +24°C° 0 mm 3 m/s 737 mmHg 69%
19:00 +22°C° 0 mm 3 m/s 737 mmHg 75%
20:00 +20°C° 0 mm 2 m/s 737 mmHg 79%
21:00 +19°C° 0 mm 2 m/s 738 mmHg 83%
22:00 +18°C° 0 mm 1 m/s 738 mmHg 87%
23:00 +18°C° 0 mm 1 m/s 738 mmHg 89%
Voir plus

Nous avons besoin de votre consentement

Meteoprog et ses fournisseurs de services peuvent stocker et accéder à des données personnelles telles que des cookies, des identifiants d'appareils ou d'autres technologies similaires sur votre appareil et traiter ces données pour personnaliser le contenu et les publicités, ainsi que pour fournir des fonctionnalités de médias sociaux et analyser le trafic.

  • Stocker et/ou accéder à des informations sur votre appareil

    Des cookies, des identifiants d'appareils ou d'autres informations peuvent être stockés ou accessibles sur votre appareil aux fins indiquées ci-dessus.

  • Annonces et contenus personnalisés, mesure des annonces et des contenus, connaissance de l'audience et développement de produits

    Les annonces et le contenu peuvent être personnalisés en fonction d'un profil. D'autres données peuvent être ajoutées pour mieux personnaliser les annonces et le contenu. Les performances des publicités et du contenu peuvent être mesurées. Il est possible d'obtenir des informations sur le public qui a vu les publicités et le contenu. Ces données peuvent être utilisées pour développer ou améliorer l'expérience de l'utilisateur, les systèmes et les logiciels.

En cliquant sur "J'accepte", vous autorisez l'utilisation de cookies, des identifiants d'appareils, des balises web ou d'autres technologies similaires. Vos paramètres peuvent être modifiés dans le navigateur de votre appareil.

Dans certains cas, des intérêts légitimes peuvent être invoqués plutôt qu'un consentement. Vous pouvez en savoir plus à ce sujet dans notre Politique de confidentialité et de cookies.